Regional Weather Roundup
Issued by NWS Upton, NY

Home | Current Version | Previous Version | Text Only | Print | Product List | Glossary On
Versions: 1 2 3 4 5 6 7 8 9 10 11 12 13 14 15 16 17 18 19 20 21 22 23 24 25 26 27 28 29 30 31 32 33 34 35 36 37 38 39 40 41 42 43 44 45 46 47 48 49 50
000
ASUS41 KOKX 060108
RWROKX

REGIONAL WEATHER ROUNDUP
NATIONAL WEATHER SERVICE NEW YORK NY
900 PM EDT TUE MAY 05 2015

NOTE: "FAIR" INDICATES FEW OR NO CLOUDS BELOW 12,000 FEET WITH NO
SIGNIFICANT WEATHER AND/OR OBSTRUCTIONS TO VISIBILITY.

NYZ071-072-176-178-NJZ106-104-060200-
NEW YORK CITY METRO AREA


CITY           SKY/WX    TMP DP  RH WIND       PRES   REMARKS
CENTRAL PARK   MOCLDY    72  52  49 CALM      30.19S
LAGUARDIA APRT MOCLDY    70  52  52 VRB5      30.16R
KENNEDY INTL   MOCLDY    65  53  65 SE3       30.18R
NEWARK/LIBERTY MOCLDY    74  54  49 CALM      30.16R
BRNX BOT. GARD   N/A     68  52  56 SE1       30.18R
TETERBORO      PTCLDY    71  52  50 CALM      30.15R
$$

NYZ177-179-078>081-060200-
LONG ISLAND NEW YORK

CITY           SKY/WX    TMP DP  RH WIND       PRES   REMARKS
FARMINGDALE    MOCLDY    66  53  63 S9        30.18R
ISLIP          CLOUDY    64  51  62 SW8       30.17R
SHIRLEY        MOCLDY    64  51  62 S5        30.19R
WESTHAMPTON    MOCLDY    60  49  66 SW6       30.20R
MONTAUK POINT    N/A     56  50  80 VRB5      30.19S
$$

NYZ052-065-067-060200-
HUDSON VALLEY

CITY           SKY/WX    TMP DP  RH WIND       PRES   REMARKS
WHITE PLAINS   MOCLDY    68  50  52 CALM      30.18R
NEWBURGH       PTCLDY    72  45  37 N12       30.18R
MONTGOMERY     MOCLDY    67  44  43 N9        30.18R
POUGHKEEPSIE   PTCLDY    73  41  31 N3        30.16R
ALBANY         CLOUDY    69  35  28 NW10      30.20R
$$

NJZ001-105-106-008-010-013-015-019>022-104-060200-
NEW JERSEY

CITY           SKY/WX    TMP DP  RH WIND       PRES   REMARKS
NEWARK/LIBERTY MOCLDY    74  54  49 CALM      30.16R
TETERBORO      PTCLDY    71  52  50 CALM      30.15R
CALDWELL       PTCLDY    72  55  55 CALM      30.17R
MORRISTOWN     MOCLDY    73  54  49 W5        30.16R
SOMERVILLE     PTCLDY    70  56  61 CALM      30.15R
SUSSEX         MOCLDY    68  50  52 SW3       30.19R
ANDOVER          N/A     66  57  72 CALM      30.19R
TRENTON        CLOUDY    75  56  51 NW3       30.17R
MILLVILLE      MOCLDY    70  59  68 CALM      30.20R
ATLANTIC CITY  PTCLDY    71  57  61 S6        30.19R
WRIGHTSTOWN    LGT RAIN  70  62  74 W2        30.16R
TOMS RIVER     PTCLDY    68  61  77 CALM      30.19R
BELMAR         CLOUDY    72  55  56 SW5       30.18R
$$

PAZ047>061-062-071-060200-
EASTERN PENNSYLVANIA

CITY           SKY/WX    TMP DP  RH WIND       PRES   REMARKS
PHILADELPHIA   MOCLDY    80  55  42 W7        30.19R
ALLENTOWN      CLOUDY    73  53  49 W3        30.19R
SCRANTON       CLOUDY    73  52  47 S3        30.21R
$$

CTZ002-004>006-009-010-012-RIZ004-006-007-MAZ004-011-015-060200-
SOUTHERN NEW ENGLAND
 IN CT

CITY           SKY/WX    TMP DP  RH WIND       PRES   REMARKS
BRADLEY INTL   MOCLDY    71  34  25 N12       30.16R
HARTFORD       PTCLDY    71  52  50 S9G20     30.16R
DANBURY        PTCLDY    72  51  47 SW9       30.18R
WTRBRY/OXFORD  PTCLDY    70  52  52 SW7       30.18R
BRIDGEPORT     MOCLDY    66  53  63 SW3       30.17R
MERIDEN        PTCLDY    70  52  52 S6        30.17R
NEW HAVEN      PTCLDY    63  52  67 SE3       30.17R
CHESTER        FAIR      66  52  59 S5        30.19R
GROTON         PTCLDY    60  49  66 CALM      30.18R
WILLIMANTIC    PTCLDY    67  51  56 S7        30.18R

 IN RI

CITY           SKY/WX    TMP DP  RH WIND       PRES   REMARKS
PROVIDENCE     MOCLDY    59  50  72 E7        30.21R
BLOCK ISLAND   MOCLDY    57  48  72 S10       30.19R
WESTERLY       PTCLDY    59  50  72 CALM      30.19R

 IN MA

CITY           SKY/WX    TMP DP  RH WIND       PRES   REMARKS
BOSTON         PTCLDY    54  50  86 SE10      30.20R
WORCESTER      MOCLDY    66  30  26 E5        30.21R
WESTFIELD      MOCLDY    67  34  29 N5        30.18R
PROVINCETOWN   MOCLDY    57  48  72 S3        30.23R
NANTUCKET      PTCLDY    50  45  83 S5        30.20R
$$

ANZ330-335-338-340-345-350-353-355-060200-
COASTAL MARINE OBSERVATIONS


STATION/POSITION TIME  SKY/WX   TEMP    WIND        PRES    VSBY  WAVE
                                AIR SEA DIR/SP/G                  HT/PER
                 (UTC)          (F)     (DEG/KT/KT) (MB)    (MI)  (FT/S)
NY HARB ENTRANCE 0050            55 52  170/ 10/ 12 1021.2          3/11
4S FIRE IS       0003               52                N/A           3/ 6
20S FIRE ISLAND  0050            54 50  190/ 10/ 10 1022.0          3/ 6
GREAT SOUTH BAY  NOT AVBL
23SW MTP         0050            51 49  220/  8/ 10 1022.0          3/ 6
HUDSON CANYON    NOT AVBL
KINGS POINT      0000            68 58  190/  7/  9 1020.7
EASTERN LI SOUND 0000            52     100/  4/  6   N/A
ROBBINS REEF     0000            68     160/  8/  9 1020.0
$$


>>>>>>>>>>>>>>>>>>>>>>>>>>>> KEY <<<<<<<<<<<<<<<<<<<<<<<<<<<
>                                                          <
>     SKY/WX - SKY CONDITION/PRESENT WEATHER               <
>     TMP    - TEMPERATURE IN FAHRENHEIT                   <
>     DP     - DEWPOINT IN FAHRENHEIT                      <
>     RH     - RELATIVE HUMIDITY IN PERCENT                <
>     WIND   - DIRECTION AND SPEED IN MPH                  <
>     PRES   - MEAN SEA LEVEL PRESSURE IN INCHES OF HG     <
>     WCI    - WIND CHILL INDEX                            <
>     VSB    - VISIBILITY IN MILES                         <
>     HX     - HEAT INDEX                                  <
>     TC     - TEMPERATURE IN CELSIUS                      <
>     VRB    - VARIABLE WIND DIRECTION                     <
>                                                          <
>>>>>>>>>>>>>>>>>>>>>>>>>>>> KEY <<<<<<<<<<<<<<<<<<<<<<<<<<<




USA.gov is the U.S. government's official web portal to all federal, state and local government web resources and services.